Lamar, CO

9:12 PM MDT on September 19, 2017 (GMT -0600)
Lamar Municipal

Weather History for KLAA - November, 2011

Change the Weather History Date:

Thursday, November 24, 2011

  Actual Average Record
Temperature  
Mean Temperature 49 °F 36 °F  
Max Temperature 75 °F 52 °F 78 °F (1923)
Min Temperature 22 °F 20 °F 0 °F (2003)
Degree Days  
Heating Degree Days 16 29  
Month to date heating degree days 547 568  
Since 1 July heating degree days 953 1035  
Cooling Degree Days 0 0  
Month to date cooling degree days 0 0  
Year to date cooling degree days 1533 1121  
Moisture  
Dew Point 18 °F    
Average Humidity 46    
Maximum Humidity 84    
Minimum Humidity 8    
Precipitation  
Precipitation 0.00 in 0.01 in 0.39 in (1980)
Month to date precipitation 0.86  
Snow  
Snow 0.00 in - - ()
Month to date snowfall 0.0  
Snow Depth 0.00 in    
Sea Level Pressure  
Sea Level Pressure 29.88 in    
Wind  
Wind Speed 5 mph (SW)    
Max Wind Speed 13 mph    
Max Gust Speed 15 mph    
Visibility 10 miles    
Events      
T = Trace of Precipitation, MM = Missing Value Source: NWS Daily Summary

Daily Weather History Graph

Daily Weather History Graph

Search for Another Location

Airport or City:

Trip Planner

Search our weather history database for the weather conditions in past years. The results will help you decide how hot, cold, wet, or windy it might be!

Date:

Astronomy

Nov. 24, 2011 Rise Set
Actual Time 6:40 AM MST 4:33 PM MST
Civil Twilight 6:12 AM MST 5:02 PM MST
Nautical Twilight 5:39 AM MST 5:34 PM MST
Astronomical Twilight 5:08 AM MST 6:06 PM MST
Moon 6:01 AM MST (11/24) 4:06 PM MST (11/24)
Length of Visible Light 10h 50m
Length of Day
9h 52m
Waning Crescent, 0% of the Moon is Illuminated
Nov 24
Waning Crescent
Nov 24
New
Dec 2
First Quarter
Dec 10
Full
Dec 17
Last Quarter

Hourly Weather History & Observations

Time (MST) Temp. Windchill Dew Point Humidity Pressure Visibility Wind Dir Wind Speed Gust Speed Precip Events Conditions
12:53 AM 30.9 °F - 19.9 °F 64% 29.97 in 10.0 mi Calm Calm - N/A   Clear
1:53 AM 27.0 °F 23.0 °F 19.0 °F 72% 29.97 in 10.0 mi West 3.5 mph - N/A   Clear
2:53 AM 28.0 °F 22.8 °F 21.0 °F 75% 29.95 in 10.0 mi WSW 4.6 mph - N/A   Clear
3:53 AM 26.1 °F 16.2 °F 19.9 °F 78% 29.95 in 10.0 mi West 10.4 mph - N/A   Clear
4:53 AM 26.1 °F 19.4 °F 19.9 °F 78% 29.96 in 10.0 mi SW 5.8 mph - N/A   Clear
6:53 AM 21.9 °F 15.7 °F 18.0 °F 85% 29.99 in 10.0 mi SSW 4.6 mph - N/A   Clear
7:53 AM 30.9 °F - 23.0 °F 72% 29.98 in 10.0 mi Calm Calm - N/A   Clear
8:53 AM 39.9 °F 34.5 °F 23.0 °F 51% 29.95 in 10.0 mi West 8.1 mph - N/A   Clear
9:53 AM 48.0 °F - 25.0 °F 41% 29.92 in 10.0 mi Calm Calm - N/A   Clear
10:53 AM 59.0 °F - 27.0 °F 29% 29.88 in 10.0 mi Calm Calm - N/A   Clear
12:53 PM 73.9 °F - 12.9 °F 10% 29.79 in 10.0 mi WSW 11.5 mph - N/A   Clear
1:53 PM 75.0 °F - 10.0 °F 8% 29.78 in 10.0 mi SW 5.8 mph - N/A   Clear
2:53 PM 73.9 °F - 9.0 °F 8% 29.78 in 10.0 mi SW 8.1 mph - N/A   Clear
3:53 PM 70.0 °F - 12.9 °F 11% 29.78 in 10.0 mi SSW 4.6 mph - N/A   Clear
4:53 PM 55.0 °F - 12.9 °F 19% 29.81 in 10.0 mi South 8.1 mph - N/A   Clear
5:53 PM 46.9 °F - 15.1 °F 28% 29.85 in 10.0 mi Calm Calm - N/A   Clear
6:53 PM 46.0 °F - 16.0 °F 30% 29.85 in 10.0 mi Calm Calm - N/A   Clear
7:53 PM 37.0 °F 32.4 °F 19.9 °F 50% 29.84 in 10.0 mi SW 5.8 mph - N/A   Clear
8:53 PM 33.1 °F 27.7 °F 19.9 °F 59% 29.83 in 10.0 mi SW 5.8 mph - N/A   Clear
9:53 PM 35.1 °F 31.0 °F 19.9 °F 54% 29.80 in 10.0 mi SW 4.6 mph - N/A   Clear
10:53 PM 37.0 °F 31.0 °F 21.9 °F 54% 29.76 in 10.0 mi SSW 8.1 mph - N/A   Clear